Location: Street
(51.1247°N, 2.7429°W)
Time: 02:05:00
(UTC+00:00)

deb Explorer IX - Pass Details

Date: 11 December 2020
Orbit: 536 x 1104 km, 38.8° (Epoch: 20 January)

Event Time Altitude Azimuth Distance (km) Brightness Sun altitude
Rises 15:17:26 0° 260° (W) 3,904 ? 4.6°
Reaches altitude 10° 15:20:47 10° 248° (WSW) 2,909 ? 4.2°
Maximum altitude 15:26:14 24° 198° (SSW) 1,968 ? 3.6°
Drops below altitude 10° 15:31:18 10° 147° (SSE) 2,673 ? 3.0°
Sets 15:34:15 0° 133° (SE) 3,521 ? 2.7°
